[Iaude] MPEC J216: 2024 JV6 [a=1.61,e=0.43,i=2.3,H=28.1]
    mpec at cfa.harvard.edu 
    mpec at cfa.harvard.edu
       
    Thu May  9 05:58:24 EDT 2024
    
    
  
M.P.E.C. 2024-J216                                  Issued 2024 May 9, 09:56 UT
     The Minor Planet Electronic Circulars contain information on unusual
         minor planets, routine data on comets and natural satellites,
         and occasional editorial announcements.  They are published
    on behalf of Division F of the International Astronomical Union by the
          Minor Planet Center, Smithsonian Astrophysical Observatory,
                          Cambridge, MA 02138, U.S.A.
			  
             Prepared using the Tamkin Foundation Computer Network
                              MPC at CFA.HARVARD.EDU
            URL https://www.minorplanetcenter.net/    ISSN 1523-6714
                                    2024 JV6                                    
Observations:
     K24J06V*1C2024 05 08.25047512 42 55.998-08 47 22.70         20.24GVEJ216G96
     K24J06V 1C2024 05 08.25564112 42 49.064-08 48 09.97         20.05GVEJ216G96
     K24J06V 1C2024 05 08.26083412 42 42.196-08 48 58.03         19.78GVEJ216G96
     K24J06V 1C2024 05 08.26601012 42 35.442-08 49 46.38         19.72GVEJ216G96
     K24J06V KC2024 05 08.33066112 41 08.264-08 59 52.91         20.53GVEJ216I52
     K24J06V KC2024 05 08.33144712 41 07.174-08 59 59.68         20.18GVEJ216I52
     K24J06V KC2024 05 08.33223412 41 06.158-09 00 08.03         20.34GVEJ216I52
     K24J06V KC2024 05 08.33302212 41 05.089-09 00 15.23         20.24GVEJ216I52
     K24J06V 1C2024 05 09.22745312 15 22.190-12 30 40.40         20.10GVEJ216G96
     K24J06V 1C2024 05 09.23229812 15 08.320-12 32 17.00               VEJ216G96
     K24J06V 1C2024 05 09.23713812 14 54.380-12 33 52.10               VEJ216G96
     K24J06V 1C2024 05 09.24197012 14 40.520-12 35 27.60         19.53GVEJ216G96
     K24J06V KC2024 05 09.26184712 13 42.888-12 42 04.18         19.82GVEJ216I52
     K24J06V KC2024 05 09.26242912 13 41.192-12 42 15.62         19.93GVEJ216I52
     K24J06V KC2024 05 09.26301512 13 39.508-12 42 27.72         19.41GVEJ216I52
     K24J06V KC2024 05 09.26360812 13 37.754-12 42 39.60         19.88GVEJ216I52
     K24J06V KC2024 05 09.39506012 07 52.961-13 12 00.25         19.5 GVEJ216474
     K24J06V KC2024 05 09.39591912 07 50.136-13 12 19.80         19.3 GVEJ216474
     K24J06V KC2024 05 09.39677712 07 47.297-13 12 39.74         19.1 GVEJ216474
     K24J06V KC2024 05 09.39849012 07 41.582-13 13 18.34         19.8 GVEJ216474
Observer details:
474 Mount John Observatory, Lake Tekapo.  Observers A. C. Gilmore, P. M.
    Kilmartin.  Measurer P. M. Kilmartin.  1.0-m f/7.7 Reflector + CCD.
G96 Mt. Lemmon Survey.  Observer J. K. Hogan.  Measurers T. Beuden, V. F.
    Carvajal, D. Fay, J. B. Fazekas, D. C. Fuls, A. R. Gibbs, A. D. Grauer, H.
    Groeller, J. K. Hogan, R. A. Kowalski, S. M. Larson, G. J. Leonard, D.
    Rankin, R. L. Seaman, F. C. Shelly, K. W. Wierzchos.  1.5-m reflector +
    10K CCD.
I52 Steward Observatory, Mt. Lemmon Station.  Observer H. Groeller.  Measurers
    T. Beuden, V. F. Carvajal, D. Fay, J. B. Fazekas, D. C. Fuls, A. R. Gibbs,
    A. D. Grauer, H. Groeller, J. K. Hogan, R. A. Kowalski, S. M. Larson, G.
    J. Leonard, D. Rankin, R. L. Seaman, F. C. Shelly, K. W. Wierzchos.  1.0-m
    prime focus + CCD.
Orbital elements:
2024 JV6                                                 Earth MOID = 0.0030 AU
Epoch 2024 Mar. 31.0 TT = JDT 2460400.5                 MPC                     
M 322.89273              (2000.0)            P               Q                  
n   0.48230176     Peri.  229.33601     +0.09252402     +0.99528920             
a   1.6103619      Node    45.99828     -0.90096867     +0.09606743             
e   0.4283290      Incl.    2.30741     -0.42390420     +0.01305582             
P   2.04           H   28.18          G   0.15           U   6                  
Residuals in seconds of arc
240508 G96  0.5+  0.6-    240508 I52  0.1+  0.1+    240509 I52  0.3+  0.3-
240508 G96  0.4-  0.1-    240509 G96  1.4+  0.8+    240509 I52  0.0   0.2-
240508 G96  0.3+  0.1-    240509 G96  0.6+  0.4-    240509 474  0.1-  0.1+
240508 G96 (2.6+  0.5-)   240509 G96  0.7-  0.1+    240509 474  0.2+  0.1+
240508 I52  0.1-  0.0     240509 G96  0.3-  0.2+    240509 474  0.3+  0.4-
240508 I52  0.5-  0.7+    240509 I52  0.2-  0.1-    240509 474  0.1-  0.0
240508 I52  0.1+  0.2-    240509 I52  0.1-  0.1+
Ephemeris:
2024 JV6                 a,e,i = 1.61, 0.43, 2                   q = 0.9206
Date    TT    R. A. (2000) Decl.     Delta      r    Elong.  Phase     V
2024 04 09    13 35 34.6 -03 01 48   0.1869  1.1871   172.4     6.4    25.4
...
2024 04 24    13 29 25.3 -02 49 25   0.09396 1.0972   166.4    12.5    24.0
...
2024 05 02    13 20 19.7 -03 38 33   0.04907 1.0534   157.7    21.3    22.8
...
2024 05 08    12 47 24.1 -08 05 32   0.01667 1.0232   146.4    33.1    20.7
2024 05 09    12 24 12.1 -11 13 16   0.01148 1.0185   140.8    38.8    20.1
2024 05 10    11 23 14.2 -18 33 32   0.0066661.0138   126.8    52.9    19.3
...
2024 05 16    02 01 36.4 -02 34 45   0.02746 0.9876    31.0   148.2    28.4
...
2024 05 24    01 45 32.9 +00 21 41   0.07117 0.9587    39.4   137.9    28.9
...
2024 06 08    01 48 54.0 +02 39 50   0.1558  0.9263    51.6   120.8    28.9
A. U. Tomatic                (C) Copyright 2024 MPC           M.P.E.C. 2024-J216
    
    
More information about the Iaude
mailing list